| time (UTC) | temp F | wind direction | speed MPH | gust MPH | rain 1hr in | rain 24hr in | rain mn in | humidity % | barometer mb |
| 20260505221003 | 53 | 0 | 0.0 | 0.0 | 0.13 | 0.39 | 0.04 | 93 | 1010.2 |
| 20260505215003 | 53 | 0 | 0.0 | 0.0 | 0.07 | 0.35 | 0.34 | 92 | 1010.1 |
| 20260505214004 | 53 | 302 | 0.0 | 1.0 | 0.06 | 0.34 | 0.31 | 92 | 1010.1 |
| 20260505213004 | 53 | 297 | 0.0 | 2.0 | 0.05 | 0.42 | 0.30 | 91 | 1010.1 |
| 20260505211003 | 53 | 317 | 1.0 | 7.0 | 0.04 | 0.44 | 0.28 | 91 | 1009.9 |
| 20260505210004 | 53 | 301 | 1.0 | 4.0 | 0.06 | 0.44 | 0.28 | 91 | 1010.0 |
| 20260505205004 | 53 | 308 | 1.0 | 4.0 | 0.07 | 0.43 | 0.27 | 91 | 1010.1 |
| 20260505204005 | 53 | 306 | 1.0 | 5.0 | 0.07 | 0.43 | 0.26 | 91 | 1010.1 |
| 20260505203004 | 53 | 311 | 1.0 | 3.0 | 0.07 | 0.43 | 0.25 | 91 | 1009.8 |
| 20260505202004 | 54 | 319 | 1.0 | 3.0 | 0.06 | 0.42 | 0.24 | 90 | 1009.9 |
| 20260505201003 | 54 | 310 | 1.0 | 2.0 | 0.05 | 0.40 | 0.23 | 89 | 1010.0 |
| 20260505200005 | 55 | 317 | 1.0 | 5.0 | 0.03 | 0.41 | 0.21 | 88 | 1010.0 |
| 20260505194004 | 56 | 317 | 2.0 | 6.0 | 0.03 | 0.45 | 0.19 | 85 | 1009.7 |
| 20260505193004 | 57 | 313 | 2.0 | 7.0 | 0.02 | 0.44 | 0.18 | 86 | 1009.7 |
| 20260505192004 | 58 | 327 | 0.0 | 2.0 | 0.02 | 0.46 | 0.18 | 89 | 1009.4 |
| 20260505190004 | 59 | 0 | 0.0 | 0.0 | 0.02 | 0.49 | 0.18 | 89 | 1009.1 |
| 20260505185004 | 59 | 0 | 0.0 | 0.0 | 0.02 | 0.52 | 0.18 | 87 | 1009.1 |
| 20260505182004 | 60 | 190 | 0.0 | 3.0 | 0.00 | 0.63 | 0.16 | 85 | 1008.9 |
| 20260505181004 | 60 | 317 | 0.0 | 2.0 | 0.00 | 0.75 | 0.16 | 85 | 1008.9 |
| 20260505180004 | 60 | 225 | 0.0 | 2.0 | 0.00 | 0.79 | 0.16 | 86 | 1009.1 |
| 20260505175003 | 60 | 200 | 0.0 | 1.0 | 0.00 | 0.83 | 0.16 | 87 | 1009.0 |
| 20260505174004 | 60 | 209 | 0.0 | 2.0 | 0.00 | 0.86 | 0.16 | 87 | 1009.0 |
| 20260505172004 | 60 | 175 | 0.0 | 1.0 | 0.01 | 0.96 | 0.16 | 86 | 1008.7 |
| 20260505171003 | 60 | 224 | 0.0 | 1.0 | 0.02 | 1.00 | 0.16 | 88 | 1008.8 |
| 20260505170005 | 60 | 337 | 0.0 | 1.0 | 0.02 | 1.12 | 0.16 | 88 | 1008.6 |
| 20260505165003 | 60 | 17 | 0.0 | 1.0 | 0.02 | 1.18 | 0.16 | 86 | 1008.3 |
| 20260505163004 | 60 | 201 | 0.0 | 3.0 | 0.01 | 1.31 | 0.15 | 84 | 1008.9 |
| 20260505162003 | 61 | 219 | 1.0 | 8.0 | 0.01 | 1.35 | 0.15 | 83 | 1009.0 |
| 20260505161003 | 63 | 209 | 2.0 | 9.0 | 0.00 | 1.48 | 0.14 | 78 | 1008.9 |
| 20260505153004 | 65 | 194 | 3.0 | 10.0 | 0.00 | 1.67 | 0.14 | 71 | 1008.8 |
| 20260505152003 | 65 | 199 | 2.0 | 14.0 | 0.00 | 1.68 | 0.14 | 72 | 1008.8 |
| 20260505151004 | 65 | 185 | 2.0 | 9.0 | 0.00 | 1.69 | 0.14 | 70 | 1008.9 |
| 20260505125004 | 70 | 189 | 3.0 | 10.0 | 0.00 | 2.13 | 0.14 | 63 | 1008.9 |
| 20260505123005 | 70 | 179 | 2.0 | 10.0 | 0.00 | 2.14 | 0.14 | 66 | 1008.9 |
| 20260505122003 | 68 | 172 | 3.0 | 8.0 | 0.00 | 2.15 | 0.14 | 69 | 1009.0 |
| 20260505121004 | 68 | 167 | 2.0 | 8.0 | 0.00 | 2.17 | 0.14 | 70 | 1009.1 |
| 20260505120005 | 69 | 204 | 2.0 | 9.0 | 0.00 | 2.22 | 0.14 | 70 | 1009.1 |
| 20260505115004 | 71 | 188 | 2.0 | 7.0 | 0.00 | 2.28 | 0.14 | 67 | 1009.1 |
| 20260505112004 | 69 | 188 | 2.0 | 7.0 | 0.00 | 2.34 | 0.14 | 68 | 1009.4 |
| 20260505111003 | 71 | 179 | 2.0 | 8.0 | 0.00 | 2.39 | 0.14 | 67 | 1009.5 |
| 20260505102004 | 70 | 215 | 1.0 | 5.0 | 0.00 | 2.53 | 0.14 | 72 | 1009.7 |
| 20260505101004 | 69 | 192 | 1.0 | 6.0 | 0.00 | 2.53 | 0.14 | 79 | 1009.7 |
| 20260505100004 | 66 | 199 | 1.0 | 6.0 | 0.00 | 2.54 | 0.14 | 91 | 1009.7 |
| 20260505095003 | 66 | 207 | 1.0 | 3.0 | 0.00 | 2.54 | 0.14 | 92 | 1009.7 |
| 20260505093004 | 65 | 251 | 0.0 | 4.0 | 0.00 | 2.54 | 0.14 | 92 | 1009.8 |
| 20260505092004 | 65 | 214 | 1.0 | 4.0 | 0.00 | 2.57 | 0.14 | 93 | 1009.8 |
| 20260505091004 | 65 | 345 | 0.0 | 2.0 | 0.00 | 2.57 | 0.14 | 93 | 1009.8 |
| 20260505090004 | 64 | 212 | 0.0 | 3.0 | 0.00 | 2.57 | 0.14 | 93 | 1009.7 |
| 20260505085004 | 64 | 313 | 1.0 | 5.0 | 0.00 | 2.57 | 0.14 | 91 | 1009.6 |
| 20260505084003 | 64 | 248 | 0.0 | 2.0 | 0.00 | 2.57 | 0.14 | 93 | 1009.6 |
| 20260505083005 | 64 | 46 | 0.0 | 1.0 | 0.00 | 2.58 | 0.14 | 94 | 1009.7 |
| 20260505082004 | 63 | 254 | 0.0 | 2.0 | 0.00 | 2.61 | 0.14 | 94 | 1009.7 |
| 20260505081004 | 63 | 317 | 0.0 | 3.0 | 0.00 | 2.63 | 0.14 | 93 | 1009.7 |
| 20260505074003 | 63 | 220 | 0.0 | 2.0 | 0.00 | 2.66 | 0.14 | 94 | 1009.5 |
| 20260505073004 | 62 | 198 | 0.0 | 1.0 | 0.00 | 2.72 | 0.14 | 94 | 1009.4 |
| 20260505071003 | 61 | 159 | 0.0 | 2.0 | 0.00 | 2.88 | 0.14 | 94 | 1009.4 |
| 20260505070005 | 61 | 199 | 0.0 | 2.0 | 0.00 | 2.92 | 0.14 | 94 | 1009.6 |
| 20260505065003 | 61 | 347 | 0.0 | 1.0 | 0.00 | 2.94 | 0.14 | 95 | 1009.5 |
| 20260505064004 | 60 | 0 | 0.0 | 0.0 | 0.00 | 2.96 | 0.14 | 95 | 1009.5 |
| 20260505062004 | 58 | 328 | 0.0 | 1.0 | 0.00 | 2.97 | 0.14 | 95 | 1009.3 |
| 20260505061004 | 58 | 0 | 0.0 | 0.0 | 0.00 | 2.98 | 0.14 | 96 | 1009.2 |
| 20260505060004 | 57 | 328 | 0.0 | 1.0 | 0.00 | 2.98 | 0.14 | 96 | 1009.0 |
| 20260505055003 | 56 | 328 | 0.0 | 1.0 | 0.00 | 2.98 | 0.14 | 96 | 1009.0 |
| 20260505054004 | 56 | 330 | 0.0 | 2.0 | 0.00 | 2.98 | 0.14 | 96 | 1009.0 |
| 20260505053004 | 55 | 0 | 0.0 | 0.0 | 0.00 | 2.99 | 0.14 | 96 | 1008.9 |
| 20260505051004 | 53 | 0 | 0.0 | 0.0 | 0.00 | 3.06 | 0.14 | 96 | 1008.8 |
| 20260505041004 | 54 | 0 | 0.0 | 0.0 | 0.00 | 3.43 | 0.14 | 96 | 1008.5 |
| 20260505040005 | 55 | 0 | 0.0 | 0.0 | 0.01 | 3.44 | 0.14 | 96 | 1008.4 |
| 20260505035003 | 55 | 306 | 0.0 | 1.0 | 0.03 | 3.48 | 0.14 | 96 | 1008.3 |
| 20260505033004 | 55 | 11 | 1.0 | 3.0 | 0.08 | 3.50 | 0.14 | 96 | 1008.5 |
| 20260505030005 | 55 | 324 | 1.0 | 5.0 | 0.09 | 3.57 | 0.13 | 96 | 1008.7 |
| 20260505025004 | 55 | 312 | 1.0 | 3.0 | 0.06 | 3.63 | 0.11 | 96 | 1008.7 |
| 20260505024004 | 55 | 306 | 1.0 | 3.0 | 0.03 | 3.63 | 0.07 | 96 | 1008.7 |
| 20260505023004 | 55 | 313 | 1.0 | 4.0 | 0.02 | 3.63 | 0.06 | 96 | 1008.8 |
| 20260505022004 | 55 | 323 | 2.0 | 7.0 | 0.02 | 3.64 | 0.06 | 96 | 1008.7 |
| 20260505021004 | 55 | 18 | 3.0 | 7.0 | 0.02 | 3.66 | 0.06 | 96 | 1008.7 |
| 20260505020005 | 56 | 20 | 3.0 | 9.0 | 0.02 | 3.69 | 0.05 | 96 | 1008.6 |
| 20260505015004 | 56 | 15 | 2.0 | 6.0 | 0.02 | 3.72 | 0.05 | 96 | 1008.6 |
| 20260505014003 | 57 | 350 | 1.0 | 2.0 | 0.01 | 3.75 | 0.04 | 96 | 1008.6 |
| 20260505013004 | 58 | 137 | 0.0 | 1.0 | 0.02 | 3.80 | 0.04 | 96 | 1008.5 |
| 20260505012004 | 58 | 0 | 0.0 | 0.0 | 0.02 | 3.81 | 0.04 | 96 | 1008.5 |
| 20260505011003 | 58 | 116 | 0.0 | 2.0 | 0.02 | 3.82 | 0.04 | 96 | 1008.5 |
| 20260505010004 | 57 | 85 | 0.0 | 2.0 | 0.01 | 3.81 | 0.03 | 96 | 1008.6 |
| 20260505005004 | 57 | 68 | 0.0 | 1.0 | 0.01 | 3.81 | 0.03 | 96 | 1008.6 |
| 20260505003005 | 57 | 22 | 1.0 | 3.0 | 0.00 | 3.80 | 0.02 | 96 | 1009.0 |
| 20260505002004 | 58 | 92 | 1.0 | 6.0 | 0.00 | 3.80 | 0.02 | 96 | 1009.1 |
| 20260505001003 | 58 | 103 | 1.0 | 6.0 | 0.00 | 3.80 | 0.02 | 96 | 1009.0 |
| 20260505000005 | 58 | 74 | 1.0 | 7.0 | 0.00 | 3.80 | 0.02 | 96 | 1009.1 |
| 20260504235004 | 58 | 89 | 2.0 | 8.0 | 0.00 | 3.80 | 0.02 | 96 | 1009.2 |
| 20260504234003 | 57 | 96 | 2.0 | 8.0 | 0.00 | 3.80 | 0.02 | 96 | 1009.3 |
| 20260504233004 | 57 | 76 | 1.0 | 4.0 | 0.00 | 3.80 | 0.02 | 96 | 1009.3 |
| 20260504232003 | 56 | 70 | 2.0 | 6.0 | 0.01 | 3.80 | 0.02 | 96 | 1009.2 |
| 20260504231004 | 56 | 70 | 2.0 | 8.0 | 0.01 | 3.80 | 0.02 | 96 | 1009.4 |
| 20260504230006 | 56 | 72 | 2.0 | 8.0 | 0.02 | 3.80 | 0.02 | 96 | 1009.1 |
| 20260504225003 | 56 | 67 | 3.0 | 8.0 | 0.03 | 3.80 | 0.02 | 96 | 1009.3 |
| 20260504224004 | 55 | 72 | 2.0 | 6.0 | 0.04 | 3.80 | 0.02 | 96 | 1009.3 |
| 20260504223004 | 55 | 70 | 1.0 | 6.0 | 0.14 | 3.80 | 0.02 | 96 | 1009.4 |
| 20260504222004 | 55 | 86 | 1.0 | 6.0 | 0.17 | 3.80 | 0.02 | 96 | 1009.4 |